This is the latest recevied weather packets stored in our database for station/object CE4TQY-10. If no packets are shown the sender has not sent any weather packets the latest 10 day(s).
| Time | Temp. | Humidity | Pressure | Rain* | Wind** | Luminosity | Snow |
|---|---|---|---|---|---|---|---|
| 1777624196 | 11.67° C | 85% | 1012.8 hPa | - | - | - | - |
| 1777623295 | 12.22° C | 85% | 1013.2 hPa | - | - | - | - |
| 1777622394 | 12.22° C | 85% | 1013.1 hPa | - | - | - | - |
| 1777621494 | 12.22° C | 85% | 1012.7 hPa | - | - | - | - |
| 1777620593 | 11.67° C | 86% | 1010 hPa | - | - | - | - |
| 1777619691 | 11.67° C | 87% | 1009.8 hPa | - | - | - | - |
| 1777618790 | 11.67° C | 87% | 1009.9 hPa | - | - | - | - |
| 1777617889 | 11.67° C | 86% | 1011.3 hPa | - | - | - | - |
| 1777616988 | 11.67° C | 86% | 1011.2 hPa | - | - | - | - |
| 1777616088 | 11.67° C | 86% | 1016.2 hPa | - | - | - | - |
| 1777615187 | 11.67° C | 85% | 1016.1 hPa | - | - | - | - |
| 1777614286 | 12.22° C | 84% | 1015.9 hPa | - | - | - | - |
| 1777613385 | 12.22° C | 84% | 1015.9 hPa | - | - | - | - |
| 1777612484 | 12.22° C | 84% | 1016 hPa | - | - | - | - |
| 1777611583 | 12.78° C | 83% | 1016.1 hPa | - | - | - | - |
| 1777610682 | 12.78° C | 83% | 1016.2 hPa | - | - | - | - |
| 1777609781 | 12.78° C | 83% | 1016.1 hPa | - | - | - | - |
| 1777608880 | 12.78° C | 83% | 1016.1 hPa | - | - | - | - |
| 1777607979 | 13.33° C | 82% | 1016.2 hPa | - | - | - | - |
| 1777607079 | 13.33° C | 81% | 1016.4 hPa | - | - | - | - |
| 1777606178 | 13.33° C | 81% | 1016.3 hPa | - | - | - | - |
| 1777605276 | 13.33° C | 81% | 1016.2 hPa | - | - | - | - |
| 1777604375 | 13.89° C | 80% | 1016.4 hPa | - | - | - | - |
| 1777603474 | 14.44° C | 79% | 1017.3 hPa | - | - | - | - |
| 1777602573 | 14.44° C | 78% | 1019.3 hPa | - | - | - | - |
* Rain since midnight (hover to see other rain measurements)
** Current wind speed in m/s (hover to see current wind gust speed)